Location: Pisa
(43.7170°N, 10.3830°E)
Time: 09:05:39
(UTC+01:00)

ISS - Visible Passes

Search period start: 22 January 2019 00:00
Search period end: 01 February 2019 00:00
Orbit: 404 x 410 km, 51.6° (Epoch: 23 January)

Date Brightness Start Highest point End Pass type
(mag) Time Alt. Az. Time Alt. Az. Time Alt. Az.
22 Jan -2.1 19:28:12 10° SW 19:30:01 30° SW 19:30:01 30° SW visible
23 Jan -3.1 18:37:07 10° SSW 18:40:13 38° SE 18:41:04 32° ESE visible
23 Jan -0.2 20:13:41 10° W 20:13:48 11° W 20:13:48 11° W visible
24 Jan -2.2 17:46:24 10° S 17:49:00 22° SE 17:51:37 10° E visible
24 Jan -2.9 19:22:05 10° WSW 19:24:46 46° WNW 19:24:46 46° WNW visible
25 Jan -3.9 18:30:38 10° WSW 18:33:56 90° NNW 18:35:40 26° ENE visible
25 Jan -0.4 20:08:00 10° WNW 20:08:23 12° WNW 20:08:23 12° WNW visible
26 Jan -2.4 19:16:15 10° W 19:19:13 31° NNW 19:19:13 31° NNW visible
27 Jan -3.0 18:24:34 10° W 18:27:45 44° NNW 18:29:59 17° NE visible
27 Jan -0.6 20:02:16 10° WNW 20:02:42 12° NW 20:02:42 12° NW visible
28 Jan -2.1 19:10:31 10° WNW 19:13:15 23° N 19:13:25 23° N visible
29 Jan -2.3 18:18:43 10° WNW 18:21:38 28° NNW 18:24:07 13° NE visible
29 Jan -0.8 19:56:20 10° NW 19:56:49 12° NW 19:56:49 12° NW visible
30 Jan -1.9 19:04:41 10° NW 19:07:14 20° N 19:07:29 20° N visible
31 Jan -2.0 18:12:55 10° WNW 18:15:34 22° N 18:18:09 10° NE visible
31 Jan -1.0 19:50:06 10° NW 19:50:52 14° NW 19:50:52 14° NW visible
